Location: Fort Wayne
(41.1310°N, 85.1290°W)
Time: 00:52:19
(UTC-05:00)

Vanguard 3 - Visible Passes

Search period start: 18 January 2017 00:00
Search period end: 28 January 2017 00:00
Orbit: 508 x 3265 km, 33.3° (Epoch: 17 January)

Date Brightness Start Highest point End Pass type
(mag) Time Alt. Az. Time Alt. Az. Time Alt. Az.
18 Jan 8.4 18:30:45 10° WSW 18:38:07 41° S 18:42:41 10° ESE visible
18 Jan 9.1 20:45:21 10° WSW 20:47:38 17° SW 20:47:38 17° SW visible
19 Jan 8.3 19:30:06 10° WSW 19:36:02 32° SSW 19:38:23 21° SSE visible
20 Jan 8.6 18:14:31 10° WSW 18:22:49 44° S 18:27:48 10° ESE visible
20 Jan 8.9 20:29:49 10° WSW 20:33:35 18° SSW 20:33:47 18° SSW visible
21 Jan 8.7 19:14:07 10° W 19:20:43 32° SSW 19:24:36 12° SE visible
22 Jan 9.1 20:14:13 10° WSW 20:18:11 17° SW 20:20:04 14° S visible
23 Jan 9.1 18:58:03 10° W 19:05:19 32° SSW 19:09:58 10° SE visible
24 Jan 9.4 19:58:31 10° WSW 20:02:42 17° SW 20:05:55 10° S visible
25 Jan 9.4 18:41:52 10° W 18:49:50 31° SSW 18:54:53 10° SSE visible
26 Jan 9.7 19:42:45 10° WSW 19:47:07 16° SW 19:50:29 10° S visible
27 Jan 9.6 18:25:34 10° W 18:34:15 31° SSW 18:39:43 10° SSE visible
